This demonstration page uses our WeatherBlox Daily Observations layout. Learn more.

Left ArrowRight Arrow

Hourly Observations for January 14, 2015

Temp ( °F °C ) Dew Point ( °F °C ) Humidity (%) Winds ( mph kmh ) Pressure ( in mb ) Visibility ( mi km ) Precip ( " mm )
12:15 am 00:15 Clear 5 -15 -2 -19 72 72 NNE 3 6 30.5 1033 10 16.0934 N/A
12:35 am 00:35 Clear 5 -15 -2 -19 72 72 N 3 6 30.5 1033 10 16.0934 N/A
12:55 am 00:55 Clear 5 -15 -2 -19 72 72 Calm 30.48 1032 10 16.0934 N/A
1:15 am 01:15 Clear 5 -15 -2 -19 72 72 Calm 30.48 1032 10 16.0934 N/A
1:35 am 01:35 Clear 5 -15 -2 -19 72 72 Calm 30.48 1032 10 16.0934 N/A
1:56 am 01:56 Clear 5 -15 -2 -19 72 72 N 3 6 30.48 1032 10 16.0934 N/A
2:15 am 02:15 Clear 5 -15 -2 -19 72 72 N 3 6 30.48 1032 10 16.0934 N/A
2:35 am 02:35 Clear 5 -15 -2 -19 72 72 NNE 3 6 30.45 1031 10 16.0934 N/A
2:55 am 02:55 Clear 5 -15 -4 -20 66 66 N 5 7 30.45 1031 10 16.0934 N/A
3:15 am 03:15 Clear 5 -15 -2 -19 72 72 N 5 7 30.45 1031 10 16.0934 N/A
3:35 am 03:35 Clear 3 -16 -4 -20 72 72 NNE 3 6 30.45 1031 10 16.0934 N/A
3:55 am 03:55 Clear 3 -16 -4 -20 72 72 Calm 30.45 1031 10 16.0934 N/A
4:15 am 04:15 Clear 3 -16 -4 -20 72 72 Calm 30.45 1031 10 16.0934 N/A
4:36 am 04:36 Clear 3 -16 -4 -20 72 72 Calm 30.45 1031 10 16.0934 N/A
4:55 am 04:55 Clear 3 -16 -4 -20 72 72 Calm 30.42 1030 10 16.0934 N/A
5:16 am 05:16 Clear 3 -16 -4 -20 72 72 Calm 30.42 1030 10 16.0934 N/A
5:35 am 05:35 Clear 3 -16 -4 -20 72 72 Calm 30.45 1031 10 16.0934 N/A
5:55 am 05:55 Clear 3 -16 -6 -21 66 66 Calm 30.45 1031 10 16.0934 N/A
6:15 am 06:15 Clear 3 -16 -4 -20 72 72 Calm 30.45 1031 10 16.0934 N/A
6:35 am 06:35 Clear 3 -16 -4 -20 72 72 Calm 30.45 1031 10 16.0934 N/A
6:55 am 06:55 Clear 3 -16 -4 -20 72 72 Calm 30.45 1031 10 16.0934 N/A
7:15 am 07:15 Clear 3 -16 -6 -21 66 66 Calm 30.45 1031 10 16.0934 N/A
7:35 am 07:35 Clear 3 -16 -6 -21 66 66 Calm 30.45 1031 10 16.0934 N/A
7:55 am 07:55 Mostly Cloudy 3 -16 -4 -20 72 72 Calm 30.45 1031 10 16.0934 N/A
8:15 am 08:15 Cloudy 3 -16 -4 -20 72 72 Calm 30.45 1031 7 11.26538 N/A
8:35 am 08:35 Mostly Cloudy 5 -15 -2 -19 72 72 NW 3 6 30.48 1032 7 11.26538 N/A
8:55 am 08:55 Cloudy 7 -14 -2 -19 66 66 N 3 6 30.45 1031 3 4.82802 N/A
9:15 am 09:15 Cloudy 7 -14 0 -18 72 72 NW 3 6 30.45 1031 0.75 1.207005 N/A
9:36 am 09:36 Partly Cloudy 9 -13 0 -18 66 66 Calm 30.45 1031 5 8.0467 N/A
9:55 am 09:55 Sunny 9 -13 1 -17 72 72 WNW 3 6 30.45 1031 7 11.26538 N/A
10:15 am 10:15 Sunny 10 -12 1 -17 67 67 NW 5 7 30.45 1031 7 11.26538 N/A
10:35 am 10:35 Sunny 12 -11 3 -16 67 67 NW 3 6 30.45 1031 7 11.26538 N/A
10:55 am 10:55 Sunny 12 -11 3 -16 67 67 WNW 3 6 30.45 1031 7 11.26538 N/A
11:15 am 11:15 Partly Cloudy 14 -10 3 -16 62 62 W 6 9 30.42 1030 10 16.0934 N/A
11:35 am 11:35 Partly Cloudy 16 -9 5 -15 62 62 W 6 9 30.42 1030 10 16.0934 N/A
11:56 am 11:56 Partly Cloudy 16 -9 3 -16 57 57 NW 6 9 30.42 1030 10 16.0934 N/A
12:15 pm 12:15 Partly Cloudy 16 -9 3 -16 57 57 Calm 30.39 1029 10 16.0934 N/A
12:35 pm 12:35 Sunny 18 -8 3 -16 53 53 Calm 30.39 1029 10 16.0934 N/A
12:56 pm 12:56 Sunny 18 -8 3 -16 53 53 Calm 30.36 1028 10 16.0934 N/A
1:15 pm 13:15 Sunny 19 -7 3 -16 49 49 Calm 30.36 1028 10 16.0934 N/A
1:35 pm 13:35 Sunny 19 -7 3 -16 49 49 WNW 5 7 30.36 1028 10 16.0934 N/A
1:55 pm 13:55 Sunny 19 -7 3 -16 49 49 WNW 5 7 30.36 1028 10 16.0934 N/A
2:15 pm 14:15 Sunny 21 -6 3 -16 45 45 Calm 30.36 1028 10 16.0934 N/A
2:36 pm 14:36 Sunny 21 -6 3 -16 45 45 WNW 3 6 30.36 1028 10 16.0934 N/A
2:55 pm 14:55 Sunny 23 -5 3 -16 42 42 WNW 3 6 30.36 1028 10 16.0934 N/A
3:16 pm 15:16 Sunny 23 -5 3 -16 42 42 NNE 3 6 30.36 1028 10 16.0934 N/A
3:35 pm 15:35 Sunny 21 -6 5 -15 49 49 Calm 30.33 1027 10 16.0934 N/A
3:55 pm 15:55 Sunny 21 -6 5 -15 49 49 NE 5 7 30.36 1028 10 16.0934 N/A
4:15 pm 16:15 Sunny 23 -5 5 -15 46 46 N 3 6 30.36 1028 10 16.0934 N/A
4:35 pm 16:35 Sunny 21 -6 3 -16 45 45 NNE 3 6 30.36 1028 10 16.0934 N/A
4:55 pm 16:55 Sunny 21 -6 5 -15 49 49 NNE 6 9 30.36 1028 10 16.0934 N/A
5:15 pm 17:15 Sunny 19 -7 7 -14 58 58 NNE 5 7 30.36 1028 10 16.0934 N/A
5:35 pm 17:35 Sunny 19 -7 7 -14 58 58 NNE 7 11 30.36 1028 10 16.0934 N/A
5:56 pm 17:56 Clear 19 -7 5 -15 53 53 N 6 9 30.36 1028 10 16.0934 N/A
6:15 pm 18:15 Clear 19 -7 5 -15 53 53 NNE 5 7 30.36 1028 10 16.0934 N/A
6:35 pm 18:35 Clear 19 -7 5 -15 53 53 N 3 6 30.36 1028 10 16.0934 N/A
6:55 pm 18:55 Partly Cloudy 19 -7 5 -15 53 53 N 3 6 30.36 1028 10 16.0934 N/A
7:15 pm 19:15 Partly Cloudy 18 -8 3 -16 53 53 NNE 5 7 30.36 1028 10 16.0934 N/A
7:36 pm 19:36 Partly Cloudy 18 -8 3 -16 53 53 NNE 3 6 30.36 1028 10 16.0934 N/A
7:55 pm 19:55 Clear 18 -8 5 -15 58 58 NE 3 6 30.33 1027 10 16.0934 N/A
8:15 pm 20:15 Clear 18 -8 5 -15 58 58 Calm 30.33 1027 10 16.0934 N/A
8:35 pm 20:35 Clear 18 -8 5 -15 58 58 Calm 30.33 1027 10 16.0934 N/A
8:55 pm 20:55 Clear 18 -8 7 -14 62 62 Calm 30.33 1027 10 16.0934 N/A
9:15 pm 21:15 Clear 16 -9 7 -14 67 67 Calm 30.33 1027 10 16.0934 N/A
9:35 pm 21:35 Clear 18 -8 7 -14 62 62 Calm 30.33 1027 10 16.0934 N/A
9:55 pm 21:55 Clear 18 -8 7 -14 62 62 Calm 30.33 1027 10 16.0934 N/A
10:16 pm 22:16 Clear 18 -8 7 -14 62 62 Calm 30.33 1027 10 16.0934 N/A
10:35 pm 22:35 Clear 18 -8 9 -13 68 68 Calm 30.33 1027 10 16.0934 N/A
10:55 pm 22:55 Clear 18 -8 9 -13 68 68 Calm 30.33 1027 10 16.0934 N/A
11:15 pm 23:15 Clear 18 -8 9 -13 68 68 Calm 30.33 1027 10 16.0934 N/A
11:35 pm 23:35 Clear 18 -8 9 -13 68 68 Calm 30.33 1027 10 16.0934 N/A
11:56 pm 23:56 Clear 19 -7 9 -13 63 63 Calm 30.3 1026 10 16.0934 N/A

Powered by AerisWeather